Middlebury State AP, Middlebu, VT

4:21 AM EST on November 13, 2019 (GMT -0500)
Middlebury State AP, Middlebu

Weather History for K6B0 - August, 2019

Change the Weather History Date:

Friday, August 16, 2019

  Actual Average (KRUT) Record (KRUT)
Temperature  
Mean Temperature 68 °F -  
Max Temperature 76 °F 80 °F 92 °F (1959)
Min Temperature 61 °F 57 °F 41 °F (1972)
Cooling Degree Days 3    
Growing Degree Days 18 (Base 50)    
Moisture  
Dew Point 63 °F    
Average Humidity 85    
Maximum Humidity 97    
Minimum Humidity 60    
Precipitation  
Precipitation 0.29 in - - ()
Sea Level Pressure  
Sea Level Pressure 30.02 in    
Wind  
Wind Speed 3 mph ()    
Max Wind Speed 10 mph    
Max Gust Speed 16 mph    
Visibility 9.7 miles    
Events Rain , Thunderstorm    
Averages and records for this station are not official NWS values.
T = Trace of Precipitation, MM = Missing Value Source: Averaged Metar Reports

Daily Weather History Graph

Daily Weather History Graph

Search for Another Location

Airport or City:

Astronomy

Aug. 16, 2019 Rise Set
Actual Time 5:57 AM EDT 7:55 PM EDT
Civil Twilight 5:25 AM EDT 8:26 PM EDT
Nautical Twilight 4:47 AM EDT 9:04 PM EDT
Astronomical Twilight 4:05 AM EDT 9:46 PM EDT
Moon 8:52 PM EDT (8/16) 6:46 AM EDT (8/16)
Length of Visible Light 15h 00m
Length of Day
13h 58m
Full, 99% of the Moon is Illuminated
Aug 16
Full
Aug 23
Last Quarter
Aug 30
New
Sep 5
First Quarter
Sep 14
Full

Hourly Weather History & Observations

Time (EDT) Temp. Dew Point Humidity Pressure Visibility Wind Dir Wind Speed Gust Speed Precip Events Conditions
12:18 AM 64.4 °F 59.5 °F 84% 30.03 in 10.0 mi South 3.5 mph - N/A   Overcast
12:37 AM 64.4 °F 59.9 °F 85% 30.02 in 10.0 mi Calm Calm - N/A   Drizzle
12:55 AM 63.5 °F 60.4 °F 90% 30.04 in 10.0 mi South 3.5 mph - 0.01 in Rain Rain
1:15 AM 62.6 °F 60.6 °F 93% 30.03 in 7.0 mi SE 4.6 mph - 0.04 in Rain Rain
1:35 AM 62.6 °F 60.8 °F 94% 30.02 in 7.0 mi Calm Calm - 0.08 in Rain Rain
1:39 AM 62.8 °F 61.0 °F 94% 30.02 in 5.0 mi Calm Calm - 0.09 in Rain Rain
1:57 AM 62.6 °F 61.5 °F 96% 30.00 in 5.0 mi Calm Calm - 0.13 in Rain Rain
2:16 AM 63.3 °F 62.4 °F 97% 30.00 in 10.0 mi SSE 3.5 mph - N/A Thunderstorm Thunderstorm
2:35 AM 64.2 °F 62.6 °F 94% 29.99 in 10.0 mi SE 3.5 mph - 0.01 in   Mostly Cloudy
2:36 AM 64.4 °F 62.6 °F 94% 29.99 in 10.0 mi SE 4.6 mph - 0.01 in   Mostly Cloudy
2:55 AM 65.3 °F 62.6 °F 91% 29.99 in 10.0 mi SSE 6.9 mph - 0.01 in   Mostly Cloudy
2:56 AM 65.3 °F 62.6 °F 91% 29.99 in 10.0 mi SSE 6.9 mph - 0.01 in   Mostly Cloudy
3:18 AM 64.9 °F 62.4 °F 92% 30.00 in 10.0 mi SSE 5.8 mph - N/A   Scattered Clouds
3:36 AM 64.9 °F 61.9 °F 90% 30.01 in 10.0 mi South 4.6 mph - N/A   Scattered Clouds
3:56 AM 64.4 °F 62.1 °F 92% 30.02 in 10.0 mi SSE 4.6 mph - N/A   Overcast
4:15 AM 63.9 °F 61.9 °F 93% 30.01 in 10.0 mi SE 3.5 mph - N/A Rain Light Rain
4:16 AM 63.9 °F 62.1 °F 94% 30.01 in 10.0 mi SE 3.5 mph - N/A Rain Light Rain
4:35 AM 63.5 °F 61.9 °F 94% 30.01 in 10.0 mi SSE 3.5 mph - N/A   Overcast
5:15 AM 63.5 °F 61.0 °F 91% 30.01 in 10.0 mi SE 3.5 mph - N/A   Overcast
5:35 AM 62.4 °F 60.4 °F 93% 30.01 in 10.0 mi Calm Calm - N/A   Mostly Cloudy
5:36 AM 62.2 °F 60.6 °F 94% 30.02 in 10.0 mi Calm Calm - N/A   Mostly Cloudy
5:55 AM 61.9 °F 61.0 °F 97% 30.02 in 10.0 mi Calm Calm - N/A   Mostly Cloudy
5:56 AM 61.9 °F 61.0 °F 97% 30.02 in 10.0 mi Calm Calm - N/A   Mostly Cloudy
6:18 AM 61.7 °F 61.0 °F 97% 30.03 in 10.0 mi Calm Calm - N/A Thunderstorm Mostly Cloudy
6:36 AM 62.6 °F 61.7 °F 97% 30.02 in 10.0 mi Calm Calm - N/A   Overcast
6:56 AM 63.3 °F 61.7 °F 94% 30.02 in 10.0 mi SSE 3.5 mph - N/A Thunderstorm Overcast
7:15 AM 64.6 °F 61.7 °F 90% 30.03 in 10.0 mi SSE 3.5 mph - N/A   Overcast
7:16 AM 64.4 °F 61.7 °F 91% 30.04 in 10.0 mi SSE 3.5 mph - N/A   Overcast
7:35 AM 64.2 °F 61.7 °F 91% 30.04 in 10.0 mi Calm Calm - N/A Thunderstorm Overcast
7:39 AM 63.9 °F 61.7 °F 93% 30.04 in 10.0 mi Calm Calm - N/A Thunderstorm Overcast
7:57 AM 63.5 °F 62.2 °F 96% 30.04 in 10.0 mi Calm Calm - N/A Thunderstorm Overcast
8:15 AM 64.0 °F 62.6 °F 95% 30.06 in 5.0 mi Calm Calm - 0.02 in Rain Rain
8:35 AM 63.1 °F 62.1 °F 96% 30.05 in 5.0 mi SSE 3.5 mph - 0.09 in Rain Rain
8:55 AM 63.0 °F 61.2 °F 94% 30.05 in 10.0 mi SE 4.6 mph - 0.10 in Rain Rain
8:56 AM 63.0 °F 61.0 °F 93% 30.05 in 10.0 mi SE 3.5 mph - 0.10 in Rain Light Rain
9:18 AM 63.0 °F 60.4 °F 91% 30.05 in 7.0 mi SSE 3.5 mph - 0.03 in Rain Rain
9:36 AM 64.0 °F 62.1 °F 93% 30.06 in 10.0 mi Calm Calm - 0.03 in Rain Light Rain
9:55 AM 65.5 °F 61.2 °F 86% 30.05 in 10.0 mi Calm Calm - 0.03 in   Overcast
10:15 AM 65.5 °F 61.9 °F 88% 30.05 in 10.0 mi SW 3.5 mph - 0.01 in Rain Rain
10:35 AM 68.0 °F 63.5 °F 85% 30.05 in 10.0 mi Calm Calm - 0.01 in   Mostly Cloudy
10:39 AM 68.5 °F 62.2 °F 80% 30.05 in 10.0 mi Calm Calm - 0.01 in   Scattered Clouds
10:57 AM 70.0 °F 62.2 °F 76% 30.05 in 10.0 mi South 6.9 mph - 0.01 in   Scattered Clouds
11:16 AM 69.3 °F 61.0 °F 75% 30.05 in 10.0 mi South 8.1 mph - N/A   Scattered Clouds
11:35 AM 70.5 °F 62.1 °F 74% 30.04 in 10.0 mi South 6.9 mph - N/A   Scattered Clouds
11:36 AM 70.5 °F 61.5 °F 73% 30.04 in 10.0 mi South 6.9 mph - N/A   Scattered Clouds
11:55 AM 72.0 °F 60.6 °F 67% 30.04 in 10.0 mi South 6.9 mph - N/A   Scattered Clouds
11:56 AM 72.1 °F 60.6 °F 67% 30.04 in 10.0 mi South 6.9 mph - N/A   Scattered Clouds
12:18 PM 72.1 °F 60.4 °F 67% 30.04 in 10.0 mi South 10.4 mph 16.1 mph N/A   Mostly Cloudy
12:36 PM 72.0 °F 59.7 °F 65% 30.04 in 10.0 mi South 10.4 mph - N/A   Mostly Cloudy
12:56 PM 71.8 °F 61.0 °F 69% 30.03 in 10.0 mi SSW 6.9 mph 10.4 mph N/A   Mostly Cloudy
1:15 PM 71.6 °F 61.5 °F 70% 30.03 in 10.0 mi South 4.6 mph - N/A   Mostly Cloudy
1:35 PM 72.7 °F 63.0 °F 71% 30.03 in 10.0 mi South 5.8 mph - N/A   Overcast
1:58 PM 74.7 °F 62.2 °F 65% 30.03 in 10.0 mi SSE 5.8 mph - N/A   Overcast
2:16 PM 74.5 °F 60.8 °F 62% 30.03 in 10.0 mi SSW 6.9 mph - N/A   Mostly Cloudy
2:35 PM 73.8 °F 60.8 °F 64% 30.03 in 10.0 mi South 6.9 mph - N/A   Scattered Clouds
2:36 PM 73.8 °F 61.0 °F 64% 30.03 in 10.0 mi South 8.1 mph - N/A   Scattered Clouds
2:55 PM 74.3 °F 61.5 °F 64% 30.02 in 10.0 mi South 4.6 mph - N/A   Overcast
2:56 PM 74.3 °F 61.7 °F 65% 30.02 in 10.0 mi South 4.6 mph - N/A   Overcast
3:18 PM 75.2 °F 61.0 °F 61% 30.02 in 10.0 mi South 5.8 mph - N/A   Mostly Cloudy
3:36 PM 74.7 °F 60.1 °F 60% 30.01 in 10.0 mi South 4.6 mph - N/A   Mostly Cloudy
3:56 PM 75.2 °F 60.8 °F 61% 30.01 in 10.0 mi SSW 3.5 mph - N/A   Overcast
5:40 PM 73.9 °F 65.8 °F 76% 30.00 in 10.0 mi Calm Calm - N/A   Mostly Cloudy
5:56 PM 73.8 °F 67.3 °F 80% 30.00 in 10.0 mi Calm Calm - N/A   Scattered Clouds
6:15 PM 72.0 °F 67.8 °F 87% 29.99 in 10.0 mi Calm Calm - N/A   Mostly Cloudy
6:16 PM 72.0 °F 67.8 °F 87% 29.99 in 10.0 mi Calm Calm - N/A   Mostly Cloudy
6:35 PM 70.7 °F 67.3 °F 89% 29.99 in 10.0 mi Calm Calm - N/A   Mostly Cloudy
6:36 PM 70.7 °F 67.3 °F 89% 29.99 in 10.0 mi Calm Calm - N/A   Mostly Cloudy
6:55 PM 70.5 °F 67.6 °F 91% 29.99 in 10.0 mi Calm Calm - N/A   Overcast
6:59 PM 70.2 °F 67.1 °F 90% 29.99 in 10.0 mi Calm Calm - N/A   Overcast
7:18 PM 70.0 °F 66.9 °F 90% 29.99 in 10.0 mi Calm Calm - N/A   Mostly Cloudy
7:36 PM 68.9 °F 65.7 °F 89% 29.99 in 10.0 mi Calm Calm - N/A   Scattered Clouds
7:55 PM 69.6 °F 65.3 °F 86% 29.99 in 10.0 mi Calm Calm - N/A   Mostly Cloudy
7:56 PM 69.4 °F 65.5 °F 87% 29.99 in 10.0 mi SE 3.5 mph - N/A   Mostly Cloudy
8:15 PM 70.0 °F 64.6 °F 83% 29.99 in 10.0 mi ESE 3.5 mph - N/A   Overcast
8:16 PM 70.0 °F 64.6 °F 83% 29.99 in 10.0 mi ESE 3.5 mph - N/A   Overcast
8:38 PM 68.5 °F 64.6 °F 87% 29.99 in 10.0 mi SE 3.5 mph - N/A   Mostly Cloudy
8:56 PM 68.2 °F 64.8 °F 89% 29.99 in 10.0 mi Calm Calm - N/A   Scattered Clouds
9:16 PM 68.4 °F 64.4 °F 87% 29.99 in 10.0 mi Calm Calm - N/A   Clear
9:35 PM 70.0 °F 63.9 °F 81% 30.00 in 10.0 mi Calm Calm - N/A   Scattered Clouds
9:36 PM 70.2 °F 64.0 °F 81% 30.00 in 10.0 mi SE 3.5 mph - N/A   Mostly Cloudy
9:55 PM 69.4 °F 64.8 °F 85% 30.00 in 10.0 mi Calm Calm - N/A   Overcast
9:59 PM 68.5 °F 65.3 °F 89% 30.00 in 10.0 mi Calm Calm - N/A   Overcast
10:17 PM 67.5 °F 65.3 °F 93% 30.00 in 10.0 mi South 3.5 mph - N/A   Overcast
10:35 PM 67.6 °F 65.3 °F 92% 29.99 in 10.0 mi SE 3.5 mph - N/A   Overcast
10:55 PM 67.5 °F 64.9 °F 92% 30.00 in 10.0 mi SSE 3.5 mph - N/A   Overcast
10:56 PM 67.6 °F 64.8 °F 90% 29.99 in 10.0 mi Calm Calm - N/A   Overcast
11:15 PM 67.5 °F 64.2 °F 89% 29.99 in 10.0 mi SSE 3.5 mph - N/A   Scattered Clouds
11:38 PM 70.0 °F 63.1 °F 79% 29.99 in 10.0 mi SSE 5.8 mph - N/A   Mostly Cloudy
11:56 PM 67.6 °F 64.4 °F 89% 29.99 in 10.0 mi Calm Calm - N/A   Overcast